Time,TemperatureF,DewpointF,PressureIn,WindDirection,WindDirectionDegrees,WindSpeedMPH,WindSpeedGustMPH,Humidity,HourlyPrecipIn,Conditions,Clouds,dailyrainin,SoftwareType,DateUTC
2013-05-30 00:09:00,66.6,63.0,30.10,North,354,0.0,1.0,88,0.00,,,0.00,weatherlink.com 1.10,2013-05-30 04:09:00,
2013-05-30 00:24:00,66.3,63.0,30.10,North,354,0.0,0.0,88,0.00,,,0.00,weatherlink.com 1.10,2013-05-30 04:24:00,
2013-05-30 00:39:00,66.0,62.0,30.10,North,354,0.0,0.0,88,0.00,,,0.00,weatherlink.com 1.10,2013-05-30 04:39:00,
2013-05-30 00:54:00,65.8,63.0,30.10,North,354,0.0,0.0,89,0.00,,,0.00,weatherlink.com 1.10,2013-05-30 04:54:00,
2013-05-30 01:09:00,65.5,63.0,30.10,North,354,0.0,0.0,90,0.00,,,0.00,weatherlink.com 1.10,2013-05-30 05:09:00,
2013-05-30 01:24:00,65.4,63.0,30.10,NNE,24,0.0,0.0,90,0.00,,,0.00,weatherlink.com 1.10,2013-05-30 05:24:00,
2013-05-30 01:39:00,65.4,63.0,30.11,NNE,24,0.0,1.0,90,0.00,,,0.00,weatherlink.com 1.10,2013-05-30 05:39:00,
2013-05-30 01:54:00,65.4,63.0,30.11,NNE,24,0.0,0.0,90,0.00,,,0.00,weatherlink.com 1.10,2013-05-30 05:54:00,
2013-05-30 02:09:00,65.2,62.0,30.11,NNE,24,0.0,0.0,90,0.00,,,0.00,weatherlink.com 1.10,2013-05-30 06:09:00,
2013-05-30 02:25:00,65.0,62.0,30.11,NNE,24,0.0,0.0,91,0.00,,,0.00,weatherlink.com 1.10,2013-05-30 06:25:00,
2013-05-30 02:40:00,65.0,62.0,30.11,NNE,24,0.0,0.0,91,0.00,,,0.00,weatherlink.com 1.10,2013-05-30 06:40:00,
2013-05-30 02:55:00,65.0,62.0,30.11,NNE,24,0.0,0.0,91,0.00,,,0.00,weatherlink.com 1.10,2013-05-30 06:55:00,
2013-05-30 03:10:00,65.0,62.0,30.11,NNE,24,0.0,0.0,91,0.00,,,0.00,weatherlink.com 1.10,2013-05-30 07:10:00,
2013-05-30 03:25:00,64.9,62.0,30.11,NNE,24,0.0,0.0,91,0.00,,,0.00,weatherlink.com 1.10,2013-05-30 07:25:00,
2013-05-30 03:40:00,65.0,62.0,30.11,ESE,121,0.0,1.0,91,0.00,,,0.00,weatherlink.com 1.10,2013-05-30 07:40:00,
2013-05-30 03:55:00,64.7,62.0,30.11,ESE,117,0.0,1.0,92,0.00,,,0.00,weatherlink.com 1.10,2013-05-30 07:55:00,
2013-05-30 04:10:00,64.7,62.0,30.12,ESE,102,0.0,1.0,92,0.00,,,0.00,weatherlink.com 1.10,2013-05-30 08:10:00,
2013-05-30 04:25:00,64.3,62.0,30.13,ESE,102,0.0,0.0,92,0.00,,,0.00,weatherlink.com 1.10,2013-05-30 08:25:00,
2013-05-30 04:40:00,63.9,62.0,30.13,ESE,102,0.0,0.0,93,0.00,,,0.00,weatherlink.com 1.10,2013-05-30 08:40:00,
2013-05-30 04:55:00,63.7,62.0,30.14,ESE,102,0.0,0.0,94,0.00,,,0.00,weatherlink.com 1.10,2013-05-30 08:55:00,
2013-05-30 05:10:00,63.9,62.0,30.15,ESE,102,0.0,1.0,93,0.00,,,0.00,weatherlink.com 1.10,2013-05-30 09:10:00,
2013-05-30 05:25:00,63.8,62.0,30.15,ESE,102,0.0,0.0,94,0.00,,,0.00,weatherlink.com 1.10,2013-05-30 09:25:00,
2013-05-30 05:40:00,63.6,62.0,30.15,ESE,102,0.0,0.0,94,0.00,,,0.00,weatherlink.com 1.10,2013-05-30 09:40:00,
2013-05-30 05:55:00,63.6,62.0,30.15,ESE,102,0.0,0.0,95,0.00,,,0.00,weatherlink.com 1.10,2013-05-30 09:55:00,
2013-05-30 06:10:00,63.5,62.0,30.16,ESE,102,0.0,0.0,95,0.00,,,0.00,weatherlink.com 1.10,2013-05-30 10:10:00,
2013-05-30 06:25:00,63.5,62.0,30.17,ESE,102,0.0,0.0,95,0.00,,,0.00,weatherlink.com 1.10,2013-05-30 10:25:00,
2013-05-30 06:40:00,63.6,63.0,30.17,ESE,102,0.0,0.0,96,0.00,,,0.00,weatherlink.com 1.10,2013-05-30 10:40:00,
2013-05-30 06:55:00,63.6,63.0,30.18,ESE,102,0.0,0.0,96,0.00,,,0.00,weatherlink.com 1.10,2013-05-30 10:55:00,
2013-05-30 07:10:00,63.9,63.0,30.18,ESE,102,0.0,0.0,96,0.00,,,0.00,weatherlink.com 1.10,2013-05-30 11:10:00,
2013-05-30 07:25:00,64.4,63.0,30.18,ESE,102,0.0,0.0,95,0.00,,,0.00,weatherlink.com 1.10,2013-05-30 11:25:00,
2013-05-30 07:40:00,64.7,63.0,30.18,ESE,102,0.0,0.0,95,0.00,,,0.00,weatherlink.com 1.10,2013-05-30 11:40:00,
2013-05-30 07:55:00,65.5,64.0,30.19,ESE,103,0.0,1.0,95,0.00,,,0.00,weatherlink.com 1.10,2013-05-30 11:55:00,
2013-05-30 08:10:00,66.9,65.0,30.19,West,269,0.0,1.0,92,0.00,,,0.00,weatherlink.com 1.10,2013-05-30 12:10:00,
2013-05-30 08:25:00,67.8,65.0,30.19,West,270,0.0,1.0,89,0.00,,,0.00,weatherlink.com 1.10,2013-05-30 12:25:00,
2013-05-30 08:40:00,69.0,65.0,30.19,WNW,282,0.0,1.0,87,0.00,,,0.00,weatherlink.com 1.10,2013-05-30 12:40:00,
2013-05-30 08:55:00,71.4,66.0,30.20,WNW,283,0.0,3.0,83,0.00,,,0.00,weatherlink.com 1.10,2013-05-30 12:55:00,
2013-05-30 09:10:00,73.1,66.0,30.19,WNW,284,0.0,3.0,79,0.00,,,0.00,weatherlink.com 1.10,2013-05-30 13:10:00,
2013-05-30 09:25:00,74.8,67.0,30.19,NW,313,0.0,3.0,76,0.00,,,0.00,weatherlink.com 1.10,2013-05-30 13:25:00,
2013-05-30 09:40:00,75.9,67.0,30.19,West,272,0.0,3.0,74,0.00,,,0.00,weatherlink.com 1.10,2013-05-30 13:40:00,
2013-05-30 09:56:00,77.0,67.0,30.19,South,172,0.0,2.0,72,0.00,,,0.00,weatherlink.com 1.10,2013-05-30 13:56:00,
2013-05-30 10:26:00,77.2,67.0,30.18,NW,313,0.0,5.0,71,0.00,,,0.00,weatherlink.com 1.10,2013-05-30 14:26:00,
2013-05-30 10:41:00,78.0,68.0,30.18,West,269,0.0,6.0,72,0.00,,,0.00,weatherlink.com 1.10,2013-05-30 14:41:00,
2013-05-30 10:56:00,79.1,68.0,30.18,WSW,256,0.0,3.0,68,0.00,,,0.00,weatherlink.com 1.10,2013-05-30 14:56:00,
2013-05-30 11:11:00,78.4,67.0,30.18,WSW,257,0.0,3.0,68,0.00,,,0.00,weatherlink.com 1.10,2013-05-30 15:11:00,
2013-05-30 11:26:00,78.7,68.0,30.18,WNW,293,1.0,3.0,69,0.00,,,0.00,weatherlink.com 1.10,2013-05-30 15:26:00,
2013-05-30 11:41:00,80.3,68.0,30.18,WSW,250,0.0,3.0,67,0.00,,,0.00,weatherlink.com 1.10,2013-05-30 15:41:00,
2013-05-30 11:56:00,81.0,67.0,30.17,West,269,0.0,4.0,62,0.00,,,0.00,weatherlink.com 1.10,2013-05-30 15:56:00,
2013-05-30 12:11:00,80.9,67.0,30.17,SSE,154,0.0,7.0,63,0.00,,,0.00,weatherlink.com 1.10,2013-05-30 16:11:00,
2013-05-30 12:26:00,81.4,67.0,30.17,SSW,198,0.0,4.0,62,0.00,,,0.00,weatherlink.com 1.10,2013-05-30 16:26:00,
2013-05-30 12:41:00,81.6,68.0,30.17,SE,137,0.0,3.0,63,0.00,,,0.00,weatherlink.com 1.10,2013-05-30 16:41:00,
2013-05-30 12:56:00,81.5,67.0,30.17,WSW,248,1.0,3.0,62,0.00,,,0.00,weatherlink.com 1.10,2013-05-30 16:56:00,
2013-05-30 13:11:00,81.6,67.0,30.16,SSE,166,0.0,5.0,61,0.00,,,0.00,weatherlink.com 1.10,2013-05-30 17:11:00,
2013-05-30 13:27:00,83.0,67.0,30.16,NNW,327,0.0,3.0,59,0.00,,,0.00,weatherlink.com 1.10,2013-05-30 17:27:00,
2013-05-30 13:41:00,82.8,67.0,30.15,WSW,243,0.0,5.0,59,0.00,,,0.00,weatherlink.com 1.10,2013-05-30 17:41:00,
2013-05-30 13:56:00,83.3,67.0,30.14,SE,142,0.0,3.0,58,0.00,,,0.00,weatherlink.com 1.10,2013-05-30 17:56:00,
2013-05-30 14:11:00,82.5,67.0,30.14,ENE,72,0.0,8.0,59,0.00,,,0.00,weatherlink.com 1.10,2013-05-30 18:11:00,
2013-05-30 14:26:00,82.7,66.0,30.14,WSW,240,0.0,3.0,58,0.00,,,0.00,weatherlink.com 1.10,2013-05-30 18:26:00,
2013-05-30 14:41:00,82.7,66.0,30.14,WSW,241,0.0,6.0,58,0.00,,,0.00,weatherlink.com 1.10,2013-05-30 18:41:00,
2013-05-30 14:56:00,83.2,66.0,30.13,NW,319,1.0,2.0,57,0.00,,,0.00,weatherlink.com 1.10,2013-05-30 18:56:00,
2013-05-30 15:11:00,82.3,66.0,30.12,ESE,105,0.0,4.0,59,0.00,,,0.00,weatherlink.com 1.10,2013-05-30 19:11:00,
2013-05-30 15:26:00,82.0,66.0,30.12,SE,134,0.0,3.0,59,0.00,,,0.00,weatherlink.com 1.10,2013-05-30 19:26:00,
2013-05-30 15:41:00,83.0,67.0,30.11,West,262,0.0,3.0,59,0.00,,,0.00,weatherlink.com 1.10,2013-05-30 19:41:00,
2013-05-30 15:56:00,83.8,67.0,30.11,West,276,0.0,2.0,57,0.00,,,0.00,weatherlink.com 1.10,2013-05-30 19:56:00,
2013-05-30 16:11:00,84.1,66.0,30.10,NW,326,1.0,3.0,55,0.00,,,0.00,weatherlink.com 1.10,2013-05-30 20:11:00,
2013-05-30 16:26:00,84.6,67.0,30.09,WNW,283,0.0,2.0,55,0.00,,,0.00,weatherlink.com 1.10,2013-05-30 20:26:00,
2013-05-30 16:41:00,84.8,67.0,30.09,NNW,328,0.0,3.0,55,0.00,,,0.00,weatherlink.com 1.10,2013-05-30 20:41:00,
2013-05-30 16:56:00,83.6,66.0,30.09,ESE,109,0.0,4.0,56,0.00,,,0.00,weatherlink.com 1.10,2013-05-30 20:56:00,
2013-05-30 17:11:00,83.0,66.0,30.08,West,267,0.0,5.0,57,0.00,,,0.00,weatherlink.com 1.10,2013-05-30 21:11:00,
2013-05-30 17:26:00,83.0,67.0,30.08,North,354,0.0,3.0,58,0.00,,,0.00,weatherlink.com 1.10,2013-05-30 21:26:00,
2013-05-30 17:41:00,81.9,68.0,30.07,NW,317,0.0,3.0,62,0.00,,,0.00,weatherlink.com 1.10,2013-05-30 21:41:00,
2013-05-30 17:56:00,82.2,67.0,30.07,WNW,298,1.0,2.0,60,0.00,,,0.00,weatherlink.com 1.10,2013-05-30 21:56:00,
2013-05-30 18:14:00,80.8,66.0,30.07,West,267,1.0,3.0,61,0.00,,,0.00,weatherlink.com 1.10,2013-05-30 22:14:00,
2013-05-30 18:26:00,80.4,66.0,30.06,WNW,289,1.0,6.0,62,0.00,,,0.00,weatherlink.com 1.10,2013-05-30 22:26:00,
2013-05-30 18:41:00,80.0,66.0,30.06,WNW,285,1.0,5.0,62,0.00,,,0.00,weatherlink.com 1.10,2013-05-30 22:41:00,
2013-05-30 18:56:00,79.8,67.0,30.07,West,277,1.0,3.0,64,0.00,,,0.00,weatherlink.com 1.10,2013-05-30 22:56:00,
2013-05-30 19:11:00,79.5,66.0,30.07,WSW,253,0.0,1.0,64,0.00,,,0.00,weatherlink.com 1.10,2013-05-30 23:11:00,
2013-05-30 19:26:00,79.0,66.0,30.07,WNW,285,0.0,2.0,64,0.00,,,0.00,weatherlink.com 1.10,2013-05-30 23:26:00,
2013-05-30 19:41:00,78.7,66.0,30.07,West,266,1.0,3.0,65,0.00,,,0.00,weatherlink.com 1.10,2013-05-30 23:41:00,
2013-05-30 19:56:00,78.8,66.0,30.08,West,269,0.0,2.0,65,0.00,,,0.00,weatherlink.com 1.10,2013-05-30 23:56:00,
2013-05-30 20:11:00,78.4,66.0,30.08,West,264,0.0,1.0,65,0.00,,,0.00,weatherlink.com 1.10,2013-05-31 00:11:00,
2013-05-30 20:26:00,77.9,65.0,30.08,West,281,0.0,2.0,65,0.00,,,0.00,weatherlink.com 1.10,2013-05-31 00:26:00,
2013-05-30 20:41:00,77.3,65.0,30.08,West,276,0.0,1.0,66,0.00,,,0.00,weatherlink.com 1.10,2013-05-31 00:41:00,
2013-05-30 20:56:00,76.4,65.0,30.08,WNW,296,0.0,1.0,68,0.00,,,0.00,weatherlink.com 1.10,2013-05-31 00:56:00,
2013-05-30 21:12:00,75.3,65.0,30.09,WNW,296,0.0,0.0,70,0.00,,,0.00,weatherlink.com 1.10,2013-05-31 01:12:00,
2013-05-30 21:27:00,74.3,65.0,30.08,WNW,296,0.0,0.0,73,0.00,,,0.00,weatherlink.com 1.10,2013-05-31 01:27:00,
2013-05-30 21:42:00,73.2,65.0,30.08,WNW,296,0.0,0.0,75,0.00,,,0.00,weatherlink.com 1.10,2013-05-31 01:42:00,
2013-05-30 21:59:00,72.0,65.0,30.08,WNW,296,0.0,0.0,78,0.00,,,0.00,weatherlink.com 1.10,2013-05-31 01:59:00,
2013-05-30 22:12:00,71.1,65.0,30.08,WNW,296,0.0,0.0,80,0.00,,,0.00,weatherlink.com 1.10,2013-05-31 02:12:00,
2013-05-30 22:27:00,70.4,65.0,30.09,WNW,296,0.0,0.0,82,0.00,,,0.00,weatherlink.com 1.10,2013-05-31 02:27:00,
2013-05-30 22:42:00,69.8,64.0,30.09,WNW,296,0.0,0.0,83,0.00,,,0.00,weatherlink.com 1.10,2013-05-31 02:42:00,
2013-05-30 22:57:00,69.3,64.0,30.10,WNW,296,0.0,0.0,84,0.00,,,0.00,weatherlink.com 1.10,2013-05-31 02:57:00,
2013-05-30 23:12:00,68.8,64.0,30.10,WNW,296,0.0,0.0,85,0.00,,,0.00,weatherlink.com 1.10,2013-05-31 03:12:00,
2013-05-30 23:27:00,68.6,64.0,30.11,NNE,25,0.0,1.0,86,0.00,,,0.00,weatherlink.com 1.10,2013-05-31 03:27:00,
2013-05-30 23:42:00,68.4,64.0,30.11,NNE,25,0.0,0.0,86,0.00,,,0.00,weatherlink.com 1.10,2013-05-31 03:42:00,
2013-05-30 23:57:00,67.8,64.0,30.11,NNE,25,0.0,1.0,88,0.00,,,0.00,weatherlink.com 1.10,2013-05-31 03:57:00,